Regional Weather Roundup
Issued by NWS

Home | Current Version | Previous Version | Graphics & Text | Print | Product List | Glossary On
Versions: 1 2 3 4 5 6 7 8 9 10 11 12 13 14 15 16 17 18 19 20 21 22 23 24 25 26 27 28 29 30 31 32 33 34 35 36 37 38 39 40 41 42 43 44 45 46 47 48 49 50
000
ASUS43 KMKX 210859
RWRWI

WISCONSIN REGIONAL WEATHER ROUNDUP
NATIONAL WEATHER SERVICE MILWAUKEE/SULLIVAN WI
300 AM CST SAT JAN 21 2017

NOTE: "FAIR" INDICATES FEW OR NO CLOUDS BELOW 12,000 FEET WITH NO
SIGNIFICANT WEATHER AND/OR OBSTRUCTIONS TO VISIBILITY.

WIZ001-002-006>008-014>016-023>028-211000-
NORTHWEST WISCONSIN

CITY           SKY/WX    TMP DP  RH WIND       PRES   REMARKS
SUPERIOR ARPT  CLOUDY    35  35 100 E3        29.56S FOG
ASHLAND        CLOUDY    35  34  96 E3        29.58F
HAYWARD        CLOUDY    35  33  92 SE5       29.54F FOG     WCI  31
SIREN          FOG       34  34  99 E5        29.53S VSB 1   WCI  30
CUMBERLAND     FOG       32  32 100 E7        29.52F VSB 1/2 WCI  26
RICE LAKE      FOG       34  34  99 E3        29.54F VSB 1
CHETEK         CLOUDY    33  33 100 E5        29.53F FOG     WCI  29
LADYSMITH      CLOUDY    35  34  97 E8        29.56F FOG     WCI  28
EAU CLAIRE     NOT AVBL
MENOMONIE        N/A    N/A N/A N/A MISG        N/A
NEW RICHMOND   FOG       34  34 100 E3        29.51F VSB 3/4
OSCEOLA        CLOUDY    34  34 100 SE5       29.54F FOG     WCI  30
$$

WIZ003>005-009-010-017-018-211000-
NORTH CENTRAL WISCONSIN

CITY           SKY/WX    TMP DP  RH WIND       PRES   REMARKS
MANITOWISH WTR CLOUDY    32  32 100 SE5       29.57F FOG     WCI  28
ARBOR VITAE    CLOUDY    34  33  96 SE6       29.57F FOG     WCI  29
WOODRUFF       CLOUDY    34  33  96 SE6       29.57F FOG     WCI  29
RHINELANDER    CLOUDY    33  33 100 SE8       29.58F FOG     WCI  26
EAGLE RIVER    CLOUDY    32  32 100 CALM      29.58F FOG
LAND O LAKES   CLOUDY    33  33 100 SE5       29.60F WCI  29
PHILLIPS       CLOUDY    32  32 100 SE6       29.55F FOG     WCI  27
TOMAHAWK       CLOUDY    32  32  99 SE3       29.58F FOG
MEDFORD        FOG       32  32  99 E7        29.55F VSB 1/2 WCI  26
MERRILL        CLOUDY    33  33 100 SE6         N/A  FOG     WCI  27
$$

WIZ029-030-035-036-043>047-211000-
CENTRAL WISCONSIN

CITY           SKY/WX    TMP DP  RH WIND       PRES   REMARKS
WAUSAU         FOG       32  32 100 E9        29.56F VSB 3/4 WCI  24
MOSINEE        FOG       32  32 100 E8        29.58F VSB 1/4 WCI  25
MARSHFIELD     FOG       33  32  96 E10       29.53F VSB 1/4 WCI  25
STEVENS POINT  DRZL/FOG  32  32 100 E5        29.58F VSB 3/4 WCI  27
WAUPACA        CLOUDY    36  35  96 CALM      29.60F FOG
WAUTOMA        FOG       34  34 100 E6        29.58F VSB 1/2 WCI  29
WISC RAPIDS    CLOUDY    34  34 100 E8        29.56F FOG     WCI  27
CAMP DOUGLAS   FOG       34  34 100 E7        29.54F VSB 3/4 WCI  28
$$

WIZ011>013-019>022-031-037>040-048>050-211000-
NORTHEAST WISCONSIN

CITY           SKY/WX    TMP DP  RH WIND       PRES   REMARKS
ANTIGO         FOG       32  32 100 E8        29.59F VSB 1/2 WCI  24
SHAWANO        FOG       34  33  95 NE3       29.63F VSB 1/2
OCONTO         CLOUDY    33  32  99 CALM      29.64F VSB 3/4
STURGEON BAY   LGT RAIN  35  34  96 E5        29.64F VSB 1   WCI  31
GREEN BAY      CLOUDY    36  36 100 E5        29.62F FOG     WCI  32
MANITOWOC      NOT AVBL
APPLETON       FOG       34  34 100 E5        29.59F VSB 1/2 WCI  30
CLINTONVILLE   CLOUDY    32  32 100 NE5       29.61F FOG     WCI  27
OSHKOSH        LGT RAIN  34  34 100 E6        29.59F VSB 1/4 WCI  29
$$

WIZ032>034-041-042-053>061-211000-
SOUTHWEST WISCONSIN

CITY           SKY/WX    TMP DP  RH WIND       PRES   REMARKS
LA CROSSE      CLOUDY    39  35  86 SE7       29.51F FOG     WCI  34
SPARTA         CLOUDY    34  34 100 E5        29.54F FOG     WCI  30
VIROQUA        CLOUDY    34  34 100 E10       29.50F VSB 1/4 WCI  26
BOSCOBEL       FOG       37  36  96 NE5       29.52F VSB 1/2 WCI  33
PRAIRIE DU CHI FOG       35  34  96 CALM      29.50F VSB 1/2
PLATTEVILLE    CLOUDY    37  37 100 E10       29.51F VSB 1/4 WCI  29
$$

WIZ056-057-062-063-064-067-068-211000-
SOUTH CENTRAL WISCONSIN

CITY           SKY/WX    TMP DP  RH WIND       PRES   REMARKS
REEDSBURG      FOG       34  34 100 E3        29.54F VSB 1/2
BARABOO/DELLS  FOG       34  34 100 E7        29.54F VSB<1/4 WCI  28
LONE ROCK      CLOUDY    36  35  96 E5        29.54F FOG     WCI  32
MINERAL POINT  FOG       37  37 100 E9        29.50F VSB 1/4 WCI  31
MADISON        FOG       36  35  96 SE6       29.56F VSB 1/2 WCI  31
MIDDLETON      CLOUDY    37  37 100 E6        29.55F VSB 1/2 WCI  33
WATERTOWN      CLOUDY    37  37 100 E8        29.56F FOG     WCI  30
MONROE         SNOW      36  36 100 E5        29.53F VSB 1/4 WCI  32
JANESVILLE     FOG       37  37 100 E5        29.55F VSB 1/2 WCI  34
$$

WIZ051-052-058>065-066-070>072-211000-
SOUTHEAST WISCONSIN

CITY           SKY/WX    TMP DP  RH WIND       PRES   REMARKS
MILWAUKEE      FOG       39  38  96 E5        29.59F VSB 1/8
WAUKESHA       LGT SNOW  34  34 100 CALM      29.60F VSB 3/4
MILWAUKEE/TIMM LGT RAIN  36  34  93 CALM      29.61S VSB 1/2
RACINE         FOG       39  38  96 E5        29.60F VSB 1/4
KENOSHA        FOG       38  38 100 E7        29.58F VSB 1/4 WCI  33
FOND DU LAC    CLOUDY    37  34  89 E6        29.58F FOG     WCI  32
SHEBOYGAN      LGT RAIN  36  35  96 E5        29.61F VSB 1/4 WCI  32
WEST BEND      HVY SNOW  34  34 100 E3        29.60S VSB 1/4
JUNEAU         FOG       36  35  99 E7        29.58F VSB 3/4 WCI  30
$$

LSZ147-162-211000-
LAKE SUPERIOR

STATION/POSITION TIME  TEMP    WIND        PRES    WAVE
                       AIR SEA DIR/SP/G            HT/PER
                 (UTC) (F)     (DEG/KT/KT) (MB)    (FT/S)
DEVILS ISLAND    0800   35     130/  7/  8 1002.9F
PORT WING        0830   34        CALM     1002.0S
SAXON HARBOR     0830   33        CALM     1002.0F
$$

LMZ867-665-643>646-211000-
LAKE MICHIGAN

STATION/POSITION TIME  TEMP    WIND        PRES    WAVE
                       AIR SEA DIR/SP/G            HT/PER
                 (UTC) (F)     (DEG/KT/KT) (MB)    (FT/S)
NORTHPORT PIER   0840   32        CALM     1004.4F
SISTER BAY       0805   34     170/  5/  7   N/A
KEWAUNEE LAKESHO 0830   36     110/  6/  8 1003.5F
SHEBOYGAN LAKESH 0800   37     100/ 11/ 11 1003.7F
PORT WASHINGTON  0830   37      40/  5/  7 1004.1F
KENOSHA   LAKESH 0800   36        CALM     1002.7
$$

TC  - TEMPERATURE IN CELSIUS
VSB - VISIBILITY IN STATUTE MILES
WCI - WIND CHILL INDEX
HX  - HEAT INDEX




USA.gov is the U.S. government's official web portal to all federal, state and local government web resources and services.